Simultaneous Nadir Overpasses (SNOs) Predictions

Prediction of SNOs between GOES-17 and TERRA Satellite Orbit:

Table of predicted SNOs for the next 14.0 days since TLE Epoch: 6/16/2022
Index Date Time (GOES-17) GOES-17 Lat,Lon TERRA Lat,Lon Distance(km) Time Diff (sec)
1 06/16/2022 19:28:37 0.04,-137.19 0.01,-137.12 8.21 80
2 06/18/2022 19:16:22 0.03,-137.19 -0.60,-134.17 343.24 80
3 06/19/2022 07:35:06 -0.03,-137.18 -0.46,-139.37 248.17 80
4 06/21/2022 07:25:30 -0.03,-137.17 0.11,-136.40 87.04 80
5 06/21/2022 19:44:05 0.02,-137.17 0.96,-141.56 499.52 80
6 06/23/2022 07:13:15 -0.03,-137.16 0.75,-133.45 421.95 80
7 06/23/2022 19:31:50 0.02,-137.16 0.32,-138.61 164.64 80
8 06/25/2022 19:22:14 0.03,-137.14 -0.27,-135.65 169.68 80
9 06/26/2022 07:40:57 -0.02,-137.13 -0.84,-140.84 421.81 80
10 06/28/2022 07:31:22 -0.02,-137.11 -0.17,-137.89 88.43 80
